TimeCST,TemperatureF,Dew PointF,Humidity,Sea Level PressureIn,VisibilityMPH,Wind Direction,Wind SpeedMPH,Gust SpeedMPH,PrecipitationIn,Events,Conditions,WindDirDegrees,DateUTC
12:15 AM,19.4,12.2,74,30.36,10.0,North,-9999.0,-,N/A,,Clear,0,2013-03-07 06:15:00
12:35 AM,17.6,10.4,73,30.36,10.0,North,-9999.0,-,N/A,,Clear,0,2013-03-07 06:35:00
12:55 AM,17.6,10.4,73,30.35,10.0,North,-9999.0,-,N/A,,Clear,0,2013-03-07 06:55:00
1:15 AM,15.8,8.6,73,30.34,9.0,North,-9999.0,-,N/A,,Clear,0,2013-03-07 07:15:00
1:35 AM,12.2,6.8,79,30.34,2.0,North,-9999.0,-,N/A,,Clear,0,2013-03-07 07:35:00
1:55 AM,10.4,6.8,85,30.34,10.0,North,-9999.0,-,N/A,,Clear,0,2013-03-07 07:55:00
2:15 AM,10.4,6.8,85,30.34,8.0,North,-9999.0,-,N/A,,Clear,0,2013-03-07 08:15:00
2:35 AM,12.2,8.6,85,30.34,9.0,North,-9999.0,-,N/A,,Clear,0,2013-03-07 08:35:00
2:55 AM,10.4,3.2,73,30.33,7.0,North,-9999.0,-,N/A,,Mostly Cloudy,0,2013-03-07 08:55:00
3:15 AM,10.4,5.0,79,30.32,0.2,North,-9999.0,-,N/A,,Overcast,0,2013-03-07 09:15:00
3:35 AM,8.6,3.2,79,30.33,0.2,North,-9999.0,-,N/A,,Overcast,0,2013-03-07 09:35:00
3:55 AM,8.6,1.4,73,30.32,0.2,North,-9999.0,-,N/A,,Overcast,0,2013-03-07 09:55:00
4:15 AM,8.6,3.2,79,30.33,0.2,North,-9999.0,-,N/A,,Overcast,0,2013-03-07 10:15:00
4:35 AM,8.6,3.2,79,30.33,0.2,North,-9999.0,-,N/A,,Overcast,0,2013-03-07 10:35:00
4:55 AM,8.6,1.4,73,30.33,0.2,North,-9999.0,-,N/A,,Overcast,0,2013-03-07 10:55:00
5:15 AM,8.6,1.4,73,30.33,0.2,North,-9999.0,-,N/A,,Overcast,0,2013-03-07 11:15:00
5:35 AM,8.6,1.4,73,30.33,0.2,North,-9999.0,-,N/A,,Overcast,0,2013-03-07 11:35:00
5:55 AM,8.6,1.4,73,30.34,0.5,North,-9999.0,-,N/A,,Overcast,0,2013-03-07 11:55:00
6:15 AM,6.8,1.4,79,30.34,0.2,North,-9999.0,-,N/A,,Overcast,0,2013-03-07 12:15:00
6:35 AM,8.6,1.4,73,30.34,0.2,North,-9999.0,-,N/A,,Overcast,0,2013-03-07 12:35:00
6:55 AM,8.6,3.2,79,30.34,0.2,North,-9999.0,-,N/A,,Overcast,0,2013-03-07 12:55:00
7:15 AM,8.6,3.2,79,30.33,0.2,North,-9999.0,-,N/A,,Overcast,0,2013-03-07 13:15:00
7:35 AM,8.6,3.2,79,30.33,0.2,North,-9999.0,-,N/A,,Overcast,0,2013-03-07 13:35:00
7:55 AM,8.6,3.2,79,30.33,0.2,North,-9999.0,-,N/A,,Overcast,0,2013-03-07 13:55:00
8:15 AM,10.4,6.8,85,30.33,1.5,North,-9999.0,-,N/A,,Overcast,0,2013-03-07 14:15:00
8:35 AM,12.2,8.6,85,30.33,5.0,North,-9999.0,-,N/A,,Partly Cloudy,0,2013-03-07 14:35:00
8:55 AM,14.0,8.6,79,30.32,6.0,North,-9999.0,-,N/A,,Clear,0,2013-03-07 14:55:00
9:15 AM,15.8,12.2,86,30.32,6.0,North,-9999.0,-,N/A,,Clear,0,2013-03-07 15:15:00
9:35 AM,17.6,12.2,79,30.32,7.0,North,-9999.0,-,N/A,,Clear,0,2013-03-07 15:35:00
9:55 AM,19.4,12.2,74,30.32,4.0,North,-9999.0,-,N/A,,Clear,0,2013-03-07 15:55:00
10:15 AM,19.4,14.0,80,30.32,7.0,North,-9999.0,-,N/A,,Clear,0,2013-03-07 16:15:00
10:35 AM,21.2,15.8,80,30.32,8.0,North,-9999.0,-,N/A,,Clear,0,2013-03-07 16:35:00
10:55 AM,21.2,15.8,80,30.32,7.0,North,-9999.0,-,N/A,,Clear,0,2013-03-07 16:55:00
11:15 AM,23.0,15.8,74,30.32,9.0,North,-9999.0,-,N/A,,Clear,0,2013-03-07 17:15:00
11:35 AM,23.0,15.8,74,30.32,8.0,North,-9999.0,-,N/A,,Clear,0,2013-03-07 17:35:00
11:55 AM,23.0,15.8,74,30.32,8.0,North,-9999.0,-,N/A,,Clear,0,2013-03-07 17:55:00
12:15 PM,24.8,17.6,74,30.32,7.0,North,-9999.0,-,N/A,,Clear,0,2013-03-07 18:15:00
12:35 PM,24.8,17.6,74,30.31,8.0,North,-9999.0,-,N/A,,Clear,0,2013-03-07 18:35:00
12:55 PM,26.6,17.6,69,30.30,9.0,North,-9999.0,-,N/A,,Clear,0,2013-03-07 18:55:00
1:15 PM,26.6,17.6,69,30.29,8.0,North,-9999.0,-,N/A,,Clear,0,2013-03-07 19:15:00
1:35 PM,26.6,17.6,69,30.28,9.0,North,-9999.0,-,N/A,,Clear,0,2013-03-07 19:35:00
1:55 PM,28.4,17.6,64,30.27,8.0,North,-9999.0,-,N/A,,Clear,0,2013-03-07 19:55:00
2:15 PM,28.4,19.4,69,30.27,8.0,North,-9999.0,-,N/A,,Clear,0,2013-03-07 20:15:00
2:35 PM,28.4,19.4,69,30.27,9.0,North,-9999.0,-,N/A,,Clear,0,2013-03-07 20:35:00
2:55 PM,30.2,19.4,64,30.26,9.0,North,-9999.0,-,N/A,,Clear,0,2013-03-07 20:55:00
3:15 PM,30.2,17.6,60,30.25,9.0,North,-9999.0,-,N/A,,Clear,0,2013-03-07 21:15:00
3:35 PM,30.2,17.6,60,30.25,10.0,North,-9999.0,-,N/A,,Clear,0,2013-03-07 21:35:00
3:55 PM,30.2,17.6,60,30.25,10.0,North,-9999.0,-,N/A,,Clear,0,2013-03-07 21:55:00
4:15 PM,30.2,17.6,60,30.26,10.0,North,-9999.0,-,N/A,,Clear,0,2013-03-07 22:15:00
4:35 PM,28.4,17.6,64,30.24,10.0,North,-9999.0,-,N/A,,Clear,0,2013-03-07 22:35:00
4:55 PM,28.4,17.6,64,30.24,10.0,North,-9999.0,-,N/A,,Clear,0,2013-03-07 22:55:00
5:15 PM,28.4,17.6,64,30.24,10.0,North,-9999.0,-,N/A,,Clear,0,2013-03-07 23:15:00
5:35 PM,28.4,17.6,64,30.24,10.0,North,-9999.0,-,N/A,,Clear,0,2013-03-07 23:35:00
5:55 PM,28.4,17.6,64,30.24,9.0,North,-9999.0,-,N/A,,Clear,0,2013-03-07 23:55:00
6:15 PM,28.4,17.6,64,30.24,9.0,North,-9999.0,-,N/A,,Clear,0,2013-03-08 00:15:00
6:35 PM,26.6,17.6,69,30.23,9.0,North,-9999.0,-,N/A,,Clear,0,2013-03-08 00:35:00
6:55 PM,26.6,17.6,69,30.25,10.0,North,-9999.0,-,N/A,,Clear,0,2013-03-08 00:55:00
7:15 PM,26.6,17.6,69,30.24,10.0,North,-9999.0,-,N/A,,Clear,0,2013-03-08 01:15:00
7:35 PM,26.6,15.8,64,30.23,10.0,North,-9999.0,-,N/A,,Clear,0,2013-03-08 01:35:00
7:55 PM,26.6,15.8,64,30.24,10.0,North,-9999.0,-,N/A,,Clear,0,2013-03-08 01:55:00
8:15 PM,24.8,15.8,69,30.24,10.0,North,-9999.0,-,N/A,,Clear,0,2013-03-08 02:15:00
8:35 PM,24.8,15.8,69,30.25,8.0,North,-9999.0,-,N/A,,Clear,0,2013-03-08 02:35:00
8:55 PM,24.8,15.8,69,30.25,8.0,North,-9999.0,-,N/A,,Clear,0,2013-03-08 02:55:00
9:15 PM,24.8,15.8,69,30.26,7.0,North,-9999.0,-,N/A,,Clear,0,2013-03-08 03:15:00
9:35 PM,24.8,15.8,69,30.27,5.0,North,-9999.0,-,N/A,,Clear,0,2013-03-08 03:35:00
9:55 PM,24.8,15.8,69,30.27,5.0,North,-9999.0,-,N/A,,Clear,0,2013-03-08 03:55:00
10:15 PM,24.8,15.8,69,30.27,5.0,North,-9999.0,-,N/A,,Clear,0,2013-03-08 04:15:00
10:35 PM,24.8,15.8,69,30.27,5.0,North,-9999.0,-,N/A,,Clear,0,2013-03-08 04:35:00
10:55 PM,23.0,15.8,74,30.26,5.0,North,-9999.0,-,N/A,,Clear,0,2013-03-08 04:55:00
11:15 PM,24.8,15.8,69,30.26,5.0,North,-9999.0,-,N/A,,Clear,0,2013-03-08 05:15:00
11:35 PM,23.0,15.8,74,30.27,5.0,North,-9999.0,-,N/A,,Clear,0,2013-03-08 05:35:00
11:55 PM,23.0,15.8,74,30.26,5.0,North,-9999.0,-,N/A,,Clear,0,2013-03-08 05:55:00